Flag for U.S.A. Weather past 2 weeks in Citrus Heights, California, U.S.A.

Now
48 °F

Passing clouds.


Feels Like: 45 °F
Forecast: 48 / 69 °F
Wind: 8 mph from Southeast

Location: Mather Field

Current Time: Mar 31, 2015 at 5:46:29 AM

Latest Report: Mar 31, 2015 at 3:50 AM


Visibility: 10 mi

Pressure: 30.01 "Hg

Humidity: 87%

Dew point: 45 °F

Location of Citrus HeightsLocation

Historic Weather in Citrus Heights — Graph

°F

Citrus Heights temperature yesterday

Maximum temperature yesterday: 81 °F (at 2:55 PM)
Minimum temperature yesterday: 48 °F (at 4:55 AM)
Average temperature yesterday: 65 °F

Past Weeks' High & Low Weather Summary

 TemperatureHumidityPressure
High82 °F (Mar 27, 2:50 PM)100% (Mar 17, 7:55 AM)30.29 "Hg (Mar 17, 7:55 AM)
Low39 °F (Mar 18, 6:45 AM)17% (Mar 28, 2:45 PM)29.94 "Hg (Mar 30, 5:48 PM)
Average61 °F65%30.09 "Hg
* Reported Mar 16 4:55 AM — Mar 31 3:50 AM, Citrus Heights, Weather by CustomWeather, © 2015

Note: Actual official high and low records may vary slightly from our data, if they occured in-between our weather recording intervals... More about our weather records

Advertising

Citrus Heights weather history for previous 24 hours

 ConditionsComfort  
Time TempWeatherWind HumidityBarometerVisibility
3:50 AM
Tue, Mar 31
48 °FPassing clouds.8 mph87%30.01 "Hg10 mi
2:55 AM50 °FPassing clouds.9 mph82%30.01 "Hg10 mi
10:55 PM
Mon, Mar 30
57 °FPassing clouds.7 mph67%30.00 "Hg10 mi
9:58 PM55 °FPassing clouds.8 mph72%29.99 "Hg10 mi
8:52 PM61 °FPassing clouds.8 mph59%29.97 "Hg10 mi
7:58 PM63 °FPartly sunny.9 mph64%29.95 "Hg10 mi
6:49 PM72 °FPartly sunny.8 mph57%29.95 "Hg10 mi
5:48 PM79 °FPartly sunny.10 mph34%29.94 "Hg10 mi
4:50 PM81 °FPartly sunny.9 mph30%29.95 "Hg10 mi
3:55 PM81 °FPartly sunny.8 mph34%29.96 "Hg10 mi
2:55 PM81 °FPartly sunny.7 mph37%29.98 "Hg10 mi
1:47 PM77 °FPartly sunny.7 mph47%30.01 "Hg10 mi
12:45 PM75 °FScattered clouds.7 mph47%30.02 "Hg10 mi
11:45 AM70 °FScattered clouds.6 mph53%30.04 "Hg10 mi
10:55 AM68 °FScattered clouds.5 mph53%30.04 "Hg10 mi
9:55 AM66 °FPassing clouds.3 mph56%30.04 "Hg10 mi
8:45 AM59 °FPassing clouds.3 mph77%30.02 "Hg10 mi
7:45 AM50 °FPassing clouds.No wind88%30.03 "Hg10 mi
6:45 AM48 °FClear.No wind87%30.00 "Hg10 mi
5:45 AM48 °FClear.3 mph87%29.99 "Hg10 mi
Weather by CustomWeather, © 2015

See weather overviewHow to use our weather pages